User: anonymous   Login
Location: Hepcat Sky Observatory
(29.9800°N, 95.6500°W)
Time: 06:40:55
(UTC-05:00)
Language:

Cosmos 2151 Rocket - Orbit

View from above orbital plane
View from above orbital plane
View from above satellite
View from above satellite

Ground track
Ground track

The orbit data is extracted from the following two-line orbital elements,

1 21423U 91042B   15216.17367635  .00000188  00000-0  22115-4 0  9993
2 21423 082.4916 239.6188 0016885 332.0623 027.9681 14.79529606301587
Epoch (UTC): 04 August 2015 04:10:05
Eccentricity: 0.0016885
inclination: 82.4916°
perigee height: 619 km
apogee height: 642 km
right ascension of ascending node: 239.6188°
argument of perigee: 332.0623°
revolutions per day: 14.79529606
mean anomaly at epoch: 27.9681°
orbit number at epoch: 30158

The dashed part of the orbit path shows where the satellite is in the earth's shadow,  

DLR